AIC24DW VIDP-VILH

Flight info

Callsign AIC24DW
Flight time 0h 58m
Altitude 35000
Route SP W39 LELAX/N0453F360
Aircraft A320/M-SDE3FGHIRWY/LB1

Departure

Time 2026-05-07 17:57
Airport Indira Gandhi International Airport (VIDP)

Arrival

Time 2026-05-07 18:56
Airport Leh Kushok Bakula Rimpochee Airport (VILH)
Time Latitude Longitude Altitude Speed Heading
2026-05-07 17:44 28.56174 77.09328 750 ft 0 kts 15°
2026-05-07 17:46 28.56172 77.09327 750 ft 2 kts 15°
2026-05-07 17:46 28.56147 77.09323 747 ft 4 kts 351°
2026-05-07 17:46 28.56125 77.09334 746 ft 4 kts 306°
2026-05-07 17:47 28.56118 77.09348 748 ft 1 kts 284°
2026-05-07 17:47 28.56118 77.09350 748 ft 0 kts 284°
2026-05-07 17:49 28.56120 77.09342 748 ft 6 kts 284°
2026-05-07 17:49 28.56147 77.09211 748 ft 19 kts 284°
2026-05-07 17:50 28.56177 77.09088 750 ft 15 kts 284°
2026-05-07 17:50 28.56158 77.09022 747 ft 8 kts 223°
2026-05-07 17:50 28.56142 77.08952 749 ft 17 kts 279°
2026-05-07 17:50 28.56190 77.08755 750 ft 29 kts 285°
2026-05-07 17:51 28.56244 77.08529 750 ft 29 kts 285°
2026-05-07 17:51 28.56295 77.08317 746 ft 27 kts 285°
2026-05-07 17:51 28.56344 77.08111 750 ft 24 kts 285°
2026-05-07 17:51 28.56353 77.07984 750 ft 13 kts 227°
2026-05-07 17:52 28.56272 77.07947 747 ft 14 kts 194°
2026-05-07 17:52 28.56114 77.07902 748 ft 30 kts 193°
2026-05-07 17:52 28.55907 77.07842 747 ft 31 kts 194°
2026-05-07 17:52 28.55693 77.07779 747 ft 32 kts 193°
2026-05-07 17:53 28.55474 77.07717 748 ft 33 kts 194°
2026-05-07 17:53 28.55269 77.07655 747 ft 29 kts 195°
2026-05-07 17:53 28.55173 77.07589 749 ft 11 kts 287°
2026-05-07 17:53 28.55193 77.07488 750 ft 20 kts 283°
2026-05-07 17:54 28.55242 77.07273 751 ft 35 kts 284°
2026-05-07 17:54 28.55295 77.07039 751 ft 29 kts 284°
2026-05-07 17:54 28.55264 77.06899 747 ft 18 kts 198°
2026-05-07 17:54 28.55135 77.06865 749 ft 20 kts 192°
2026-05-07 17:55 28.54999 77.06831 748 ft 20 kts 193°
2026-05-07 17:55 28.54866 77.06793 746 ft 18 kts 192°
2026-05-07 17:55 28.54772 77.06769 749 ft 13 kts 193°
2026-05-07 17:55 28.54695 77.06749 747 ft 10 kts 192°
2026-05-07 17:56 28.54668 77.06770 748 ft 0 kts 103°
2026-05-07 17:56 28.54664 77.06789 749 ft 19 kts 103°
2026-05-07 17:56 28.54571 77.07239 750 ft 93 kts 104°
2026-05-07 17:56 28.54367 77.08182 751 ft 149 kts 103°
2026-05-07 17:57 28.54109 77.09373 1364 ft 153 kts 102°
2026-05-07 17:57 28.53943 77.10152 1894 ft 154 kts 107°
2026-05-07 17:57 28.53721 77.11851 2524 ft 178 kts 82°
2026-05-07 17:57 28.54319 77.13193 2879 ft 208 kts 47°
2026-05-07 17:58 28.55169 77.13834 3173 ft 230 kts 23°
2026-05-07 17:58 28.56831 77.14249 3604 ft 257 kts 13°
2026-05-07 17:58 28.58673 77.14614 4151 ft 276 kts 11°
2026-05-07 17:58 28.60585 77.14986 5030 ft 282 kts 10°
2026-05-07 17:59 28.62532 77.15369 5948 ft 286 kts
2026-05-07 17:59 28.64515 77.15757 6917 ft 286 kts
2026-05-07 17:59 28.66462 77.16148 7906 ft 285 kts
2026-05-07 17:59 28.68392 77.16544 8857 ft 285 kts
2026-05-07 18:00 28.70346 77.16948 9814 ft 285 kts
2026-05-07 18:00 28.72347 77.17359 10305 ft 303 kts
2026-05-07 18:00 28.74503 77.17794 10558 ft 326 kts
2026-05-07 18:00 28.76784 77.18257 11054 ft 338 kts
2026-05-07 18:01 28.79117 77.18738 11765 ft 342 kts
2026-05-07 18:01 28.81470 77.19229 12507 ft 346 kts
2026-05-07 18:01 28.83847 77.19726 13271 ft 349 kts
2026-05-07 18:01 28.86243 77.20227 13996 ft 352 kts
2026-05-07 18:02 28.91102 77.21240 15341 ft 358 kts
2026-05-07 18:02 28.93569 77.21750 16004 ft 362 kts
2026-05-07 18:02 28.96070 77.22265 16646 ft 366 kts
2026-05-07 18:03 28.98586 77.22785 17299 ft 370 kts
2026-05-07 18:03 29.01144 77.23316 17868 ft 376 kts
2026-05-07 18:03 29.03730 77.23854 18478 ft 379 kts
2026-05-07 18:03 29.06336 77.24394 19025 ft 382 kts
2026-05-07 18:04 29.08963 77.24940 19581 ft 385 kts
2026-05-07 18:04 29.11607 77.25490 20129 ft 388 kts
2026-05-07 18:04 29.14271 77.26046 20677 ft 391 kts
2026-05-07 18:04 29.16965 77.26607 21215 ft 394 kts
2026-05-07 18:05 29.19669 77.27170 21750 ft 397 kts
2026-05-07 18:05 29.22395 77.27737 22255 ft 400 kts
2026-05-07 18:05 29.25150 77.28310 22727 ft 404 kts
2026-05-07 18:05 29.27924 77.28889 23211 ft 407 kts
2026-05-07 18:06 29.30730 77.29476 23659 ft 410 kts
2026-05-07 18:06 29.33554 77.30067 24075 ft 413 kts
2026-05-07 18:06 29.36359 77.30651 24480 ft 416 kts
2026-05-07 18:06 29.39214 77.31245 24883 ft 418 kts
2026-05-07 18:07 29.42122 77.31852 25281 ft 421 kts
2026-05-07 18:07 29.45008 77.32457 25663 ft 423 kts
2026-05-07 18:07 29.47916 77.33067 26054 ft 426 kts
2026-05-07 18:07 29.50839 77.33680 26437 ft 428 kts
2026-05-07 18:08 29.53779 77.34294 26797 ft 431 kts
2026-05-07 18:08 29.56742 77.34910 27158 ft 434 kts
2026-05-07 18:08 29.59724 77.35527 27529 ft 437 kts
2026-05-07 18:08 29.62683 77.36141 27885 ft 439 kts
2026-05-07 18:09 29.65707 77.36772 28242 ft 442 kts
2026-05-07 18:09 29.68743 77.37414 28602 ft 444 kts
2026-05-07 18:09 29.71790 77.38063 28921 ft 446 kts
2026-05-07 18:09 29.74855 77.38716 29240 ft 449 kts
2026-05-07 18:10 29.77937 77.39372 29561 ft 451 kts
2026-05-07 18:10 29.81037 77.40028 29865 ft 454 kts
2026-05-07 18:10 29.84158 77.40685 30098 ft 457 kts
2026-05-07 18:10 29.87297 77.41344 30348 ft 460 kts
2026-05-07 18:11 29.90443 77.42004 30714 ft 459 kts
2026-05-07 18:11 29.92521 77.42440 30973 ft 458 kts
2026-05-07 18:11 29.96709 77.43323 31486 ft 456 kts
2026-05-07 18:11 29.99839 77.43864 31861 ft 454 kts
2026-05-07 18:12 30.02990 77.44116 32237 ft 453 kts
2026-05-07 18:12 30.06134 77.44360 32619 ft 452 kts
2026-05-07 18:12 30.09271 77.44605 32992 ft 452 kts
2026-05-07 18:12 30.12408 77.44852 33307 ft 452 kts
2026-05-07 18:13 30.15512 77.45097 33659 ft 452 kts
2026-05-07 18:13 30.18650 77.45346 34003 ft 452 kts
2026-05-07 18:13 30.21778 77.45596 34341 ft 450 kts
2026-05-07 18:13 30.24901 77.45845 34704 ft 449 kts
2026-05-07 18:14 30.28014 77.46089 34876 ft 448 kts
2026-05-07 18:14 30.34221 77.46573 34913 ft 446 kts
2026-05-07 18:15 30.40420 77.47065 34937 ft 447 kts
2026-05-07 18:15 30.46640 77.47565 34933 ft 448 kts
2026-05-07 18:16 30.52865 77.48067 34933 ft 448 kts
2026-05-07 18:16 30.59083 77.48565 34950 ft 448 kts
2026-05-07 18:17 30.65300 77.49060 34950 ft 448 kts
2026-05-07 18:17 30.71519 77.49548 34971 ft 448 kts
2026-05-07 18:18 30.77738 77.50050 34971 ft 448 kts
2026-05-07 18:18 30.83954 77.50559 34988 ft 448 kts
2026-05-07 18:19 30.90166 77.51048 34989 ft 448 kts
2026-05-07 18:19 30.96393 77.51542 35005 ft 448 kts
2026-05-07 18:20 31.02581 77.52043 35015 ft 449 kts
2026-05-07 18:20 31.08820 77.52546 35013 ft 449 kts
2026-05-07 18:21 31.15057 77.53043 35014 ft 449 kts
2026-05-07 18:21 31.21290 77.53538 35017 ft 449 kts
2026-05-07 18:22 31.27528 77.54054 35015 ft 449 kts
2026-05-07 18:22 31.33767 77.54566 35014 ft 449 kts
2026-05-07 18:23 31.40014 77.55074 35024 ft 449 kts
2026-05-07 18:23 31.46256 77.55587 35025 ft 450 kts
2026-05-07 18:24 31.52510 77.56080 35042 ft 451 kts
2026-05-07 18:24 31.58770 77.56589 35061 ft 451 kts
2026-05-07 18:25 31.65038 77.57099 35062 ft 452 kts
2026-05-07 18:25 31.71312 77.57613 35090 ft 452 kts
2026-05-07 18:26 31.77552 77.58124 35104 ft 452 kts
2026-05-07 18:26 31.83829 77.58636 35128 ft 452 kts
2026-05-07 18:27 31.90097 77.59150 35149 ft 452 kts
2026-05-07 18:27 31.96397 77.59667 35146 ft 456 kts
2026-05-07 18:28 32.02731 77.60190 35163 ft 455 kts
2026-05-07 18:28 32.09020 77.60711 35161 ft 452 kts
2026-05-07 18:29 32.15298 77.61227 35162 ft 452 kts
2026-05-07 18:29 32.21564 77.61740 35166 ft 451 kts
2026-05-07 18:30 32.27836 77.62264 35184 ft 452 kts
2026-05-07 18:30 32.34107 77.62778 35192 ft 451 kts
2026-05-07 18:31 32.40288 77.63754 35191 ft 454 kts 13°
2026-05-07 18:31 32.46261 77.66260 35172 ft 455 kts 17°
2026-05-07 18:32 32.52221 77.68814 35160 ft 456 kts 17°
2026-05-07 18:32 32.58180 77.71372 35151 ft 456 kts 17°
2026-05-07 18:33 32.64143 77.73953 35149 ft 456 kts 17°
2026-05-07 18:33 32.70113 77.76528 35141 ft 456 kts 17°
2026-05-07 18:34 32.76080 77.79104 35143 ft 456 kts 17°
2026-05-07 18:34 32.79064 77.80394 34729 ft 458 kts 17°
2026-05-07 18:34 32.82094 77.81705 33491 ft 469 kts 18°
2026-05-07 18:34 32.85192 77.83044 32325 ft 476 kts 18°
2026-05-07 18:35 32.88315 77.84395 31325 ft 479 kts 18°
2026-05-07 18:35 32.91457 77.85755 30337 ft 481 kts 19°
2026-05-07 18:35 32.94601 77.87123 29406 ft 479 kts 19°
2026-05-07 18:35 32.97717 77.88485 28460 ft 476 kts 19°
2026-05-07 18:36 33.00826 77.89843 27644 ft 471 kts 19°
2026-05-07 18:36 33.03890 77.91178 26875 ft 465 kts 20°
2026-05-07 18:36 33.06906 77.92496 26167 ft 459 kts 20°
2026-05-07 18:36 33.09880 77.93800 25468 ft 452 kts 20°
2026-05-07 18:37 33.12811 77.95082 24789 ft 446 kts 20°
2026-05-07 18:37 33.15711 77.96349 24135 ft 441 kts 20°
2026-05-07 18:37 33.18550 77.97589 23898 ft 425 kts 20°
2026-05-07 18:37 33.21265 77.98775 23809 ft 407 kts 20°
2026-05-07 18:38 33.23004 77.99536 23705 ft 397 kts 20°
2026-05-07 18:38 33.25552 78.00652 23517 ft 383 kts 20°
2026-05-07 18:38 33.28787 78.02062 23296 ft 365 kts 18°
2026-05-07 18:38 33.31233 78.02588 23144 ft 353 kts
2026-05-07 18:39 33.33644 78.02232 22710 ft 351 kts 345°
2026-05-07 18:39 33.35907 78.01103 22244 ft 351 kts 336°
2026-05-07 18:39 33.37398 78.00284 22092 ft 345 kts 336°
2026-05-07 18:39 33.40242 77.98740 21790 ft 334 kts 337°
2026-05-07 18:40 33.41635 77.97990 21644 ft 329 kts 338°
2026-05-07 18:40 33.43700 77.96884 21419 ft 322 kts 337°
2026-05-07 18:40 33.45727 77.95801 21209 ft 316 kts 338°
2026-05-07 18:40 33.47710 77.94741 20987 ft 308 kts 337°
2026-05-07 18:41 33.49647 77.93706 20779 ft 301 kts 338°
2026-05-07 18:41 33.51548 77.92689 20578 ft 296 kts 337°
2026-05-07 18:41 33.53413 77.91689 20377 ft 291 kts 337°
2026-05-07 18:41 33.55243 77.90705 20188 ft 286 kts 337°
2026-05-07 18:42 33.57046 77.89734 19988 ft 281 kts 337°
2026-05-07 18:42 33.58810 77.88783 19794 ft 275 kts 338°
2026-05-07 18:42 33.60559 77.87843 19618 ft 274 kts 338°
2026-05-07 18:42 33.62287 77.86913 19567 ft 273 kts 338°
2026-05-07 18:43 33.64021 77.85983 19458 ft 273 kts 337°
2026-05-07 18:43 33.65757 77.85048 19275 ft 270 kts 338°
2026-05-07 18:43 33.67474 77.84120 19208 ft 270 kts 338°
2026-05-07 18:43 33.69166 77.83206 19105 ft 270 kts 338°
2026-05-07 18:44 33.70874 77.82283 18940 ft 268 kts 338°
2026-05-07 18:44 33.72590 77.81356 18505 ft 276 kts 339°
2026-05-07 18:44 33.74345 77.80410 18140 ft 274 kts 339°
2026-05-07 18:44 33.76070 77.79478 17942 ft 269 kts 338°
2026-05-07 18:45 33.77767 77.78560 17748 ft 266 kts 337°
2026-05-07 18:45 33.79456 77.77648 17571 ft 265 kts 338°
2026-05-07 18:45 33.81131 77.76745 17402 ft 263 kts 338°
2026-05-07 18:45 33.82798 77.75845 17215 ft 262 kts 338°
2026-05-07 18:46 33.84456 77.74949 17046 ft 261 kts 337°
2026-05-07 18:46 33.86121 77.74047 16896 ft 263 kts 337°
2026-05-07 18:46 33.87787 77.73142 16726 ft 262 kts 337°
2026-05-07 18:46 33.89443 77.72245 16598 ft 257 kts 337°
2026-05-07 18:47 33.91024 77.71387 16456 ft 243 kts 337°
2026-05-07 18:47 33.92528 77.70569 16334 ft 232 kts 336°
2026-05-07 18:47 33.93964 77.69788 16256 ft 221 kts 336°
2026-05-07 18:47 33.95334 77.69041 16177 ft 211 kts 335°
2026-05-07 18:48 33.96645 77.68327 16100 ft 202 kts 335°
2026-05-07 18:48 33.97905 77.67642 16013 ft 196 kts 335°
2026-05-07 18:48 33.99139 77.66971 15917 ft 194 kts 335°
2026-05-07 18:48 34.00328 77.66207 15843 ft 194 kts 324°
2026-05-07 18:49 34.01404 77.65207 15719 ft 195 kts 322°
2026-05-07 18:49 34.02480 77.64205 15581 ft 195 kts 322°
2026-05-07 18:49 34.03549 77.63211 15485 ft 193 kts 322°
2026-05-07 18:49 34.04604 77.62229 15380 ft 191 kts 322°
2026-05-07 18:50 34.05646 77.61260 15279 ft 188 kts 323°
2026-05-07 18:50 34.06677 77.60303 15197 ft 186 kts 323°
2026-05-07 18:50 34.07696 77.59356 15074 ft 184 kts 322°
2026-05-07 18:50 34.08722 77.58403 15070 ft 190 kts 322°
2026-05-07 18:51 34.09776 77.57422 14891 ft 192 kts 322°
2026-05-07 18:51 34.10823 77.56448 14605 ft 185 kts 322°
2026-05-07 18:51 34.11831 77.55545 14572 ft 178 kts 329°
2026-05-07 18:51 34.12967 77.55019 14527 ft 177 kts 348°
2026-05-07 18:52 34.14177 77.54722 14378 ft 177 kts 338°
2026-05-07 18:52 34.15214 77.53930 14075 ft 176 kts 314°
2026-05-07 18:52 34.15969 77.52770 13809 ft 176 kts 305°
2026-05-07 18:52 34.16690 77.51569 13552 ft 179 kts 305°
2026-05-07 18:53 34.17371 77.50301 13223 ft 181 kts 287°
2026-05-07 18:53 34.17396 77.48834 12855 ft 176 kts 248°
2026-05-07 18:53 34.16669 77.47696 12506 ft 172 kts 212°
2026-05-07 18:53 34.15594 77.47074 12190 ft 171 kts 208°
2026-05-07 18:54 34.14471 77.46652 11928 ft 172 kts 176°
2026-05-07 18:54 34.13421 77.47240 11618 ft 175 kts 132°
2026-05-07 18:54 34.12665 77.48426 11284 ft 184 kts 124°
2026-05-07 18:54 34.12269 77.49869 11015 ft 180 kts 83°
2026-05-07 18:55 34.12566 77.51288 10836 ft 175 kts 57°
2026-05-07 18:55 34.13034 77.52662 10669 ft 181 kts 63°
2026-05-07 18:55 34.13433 77.54041 10630 ft 157 kts 70°
2026-05-07 18:55 34.13729 77.55054 10737 ft 89 kts 70°
2026-05-07 18:56 34.13869 77.55563 10799 ft 47 kts 71°
2026-05-07 18:56 34.13966 77.55877 10846 ft 34 kts 69°
2026-05-07 18:56 34.14029 77.56087 10876 ft 19 kts 71°
2026-05-07 18:56 34.14063 77.56206 10891 ft 15 kts 71°
2026-05-07 18:57 34.14120 77.56259 10901 ft 9 kts 340°
2026-05-07 18:57 34.14141 77.56175 10893 ft 20 kts 247°
2026-05-07 18:57 34.14080 77.55947 10862 ft 36 kts 252°
2026-05-07 18:57 34.14003 77.55627 10814 ft 37 kts 249°
2026-05-07 18:58 34.13916 77.55373 10785 ft 25 kts 243°
2026-05-07 18:58 34.13881 77.55292 10773 ft 15 kts 242°
2026-05-07 18:58 34.13815 77.55136 10750 ft 27 kts 244°
2026-05-07 18:58 34.13795 77.55015 10737 ft 4 kts 261°
2026-05-07 18:59 34.13798 77.54937 10732 ft 14 kts 298°
2026-05-07 18:59 34.13879 77.54885 10733 ft 12 kts 338°
2026-05-07 18:59 34.13933 77.54859 10738 ft 5 kts 336°
2026-05-07 18:59 34.13957 77.54846 10740 ft 7 kts 336°
2026-05-07 19:00 34.14021 77.54830 10749 ft 7 kts 26°
2026-05-07 19:00 34.14034 77.54850 10753 ft 5 kts 58°
2026-05-07 19:00 34.13996 77.54909 10751 ft 10 kts 149°
2026-05-07 19:00 34.13986 77.54920 10750 ft 0 kts 129°